[[{"header":{"parameterUnit":"m.s-1","parameterCategory":1,"la1":30.2991,"la2":30.254,"lo1":-89.0895,"lo2":-89.0444,"dy":0.0017,"dx":0.0017,"nx":28,"ny":28,"refTime":"2025-09-19T09:00:00:Z","depth":0,"parameterNumber":2,"parameterNumberName":"U-component_of_WINDS"},"data":[0,0,0,0,0,0,0,0,0,0,0,0,0,0,0,0,0,0,0,0,0,0,0,0,0,0,0,0,0,0,0,0,0,0,0,0,0,0,0,0,0,0,0,0,0,0,0,0,0,0,0,0,0,0,0,0,0,0,3.2155,3.2156,0,3.231,3.2312,3.2314,3.2296,3.2293,3.2291,3.2288,3.2448,3.2455,3.2461,0,0,0,0,0,0,0,0,0,0,0,0,0,3.1842,3.1848,3.2154,3.2156,3.2158,3.231,3.2312,3.2314,3.2296,3.2293,3.229,3.2287,3.2446,3.2454,3.2462,0,0,0,0,0,0,0,0,0,0,0,0,0,3.1986,3.185,3.2154,3.2168,3.217,3.231,3.2312,3.2315,3.2297,3.2293,3.2289,3.2286,3.2444,3.2453,3.2463,3.2599,0,0,3.2493,3.2498,0,0,0,0,0,0,0,0,3.1978,3.1997,3.2164,3.2167,3.217,3.228,3.2261,3.241,3.2298,3.2249,3.2288,3.2284,3.2395,3.2409,3.2446,3.2607,3.2614,3.2494,3.25,3.2504,3.2507,0,0,0,0,0,0,0,3.1968,3.199,3.2216,3.2166,3.217,3.2166,3.2182,3.2289,3.2341,3.2253,3.2252,3.227,3.2396,3.2437,3.245,3.2616,3.2494,3.2503,3.2509,3.2513,3.2897,3.2901,0,0,0,0,0,0,3.1954,3.1982,3.2211,3.2221,3.2063,3.2175,3.2193,3.2248,3.234,3.235,3.2273,3.2269,3.2422,3.2439,3.2456,3.2622,3.2504,3.2514,3.2519,3.2893,3.2898,3.2903,0,0,0,0,0,0,3.1948,3.1975,3.2205,3.2101,3.213,3.2184,3.2247,3.2253,3.2294,3.2356,3.2365,3.2305,3.242,3.2442,3.2564,3.2627,3.2518,3.2527,3.2888,3.2895,3.29,3.2955,0,0,0,0,0,0,3.1939,3.1973,3.2025,3.2103,3.2136,3.2311,3.225,3.2259,3.2311,3.2307,3.2388,3.2398,3.2418,3.2549,3.2574,3.2639,3.2535,3.2882,3.2891,3.2898,3.2948,3.2963,3.2975,0,0,0,0,0,3.1928,3.2034,3.2027,3.2055,3.2202,3.2314,3.2333,3.2354,3.2316,3.2369,3.2409,3.2395,3.2616,3.2562,3.2589,3.2658,3.2879,3.2889,3.2898,3.2942,3.296,3.2975,0,0,0,0,0,0,3.1961,3.2044,3.2038,3.2172,3.2237,3.2311,3.2378,3.2373,3.2449,3.2442,3.2465,3.2484,3.2607,3.2645,3.2583,3.2796,3.2742,3.2758,3.2766,3.2784,3.2797,3.2786,3.2543,0,0,0,0,0,3.1985,3.2069,3.2136,3.2248,3.2281,3.2324,3.2374,3.2385,3.2452,3.2479,3.2528,3.2594,3.2678,3.2733,3.2814,3.2953,3.2971,3.3015,3.3028,3.3039,3.3052,3.313,3.315,3.2934,3.2934,3.2934,0,0,3.2033,3.2089,3.214,3.2257,3.2308,3.2394,3.2347,3.244,3.2505,3.2493,3.2612,3.265,3.2725,3.2857,3.2917,3.2892,3.3116,3.3051,3.3059,3.3067,3.3141,3.3162,3.318,3.2941,3.294,3.2939,0,0,3.2166,3.2217,3.2316,3.2368,3.2446,3.2474,3.2498,3.2574,3.2598,3.2718,3.2711,3.2788,3.2933,3.2987,3.3033,3.3188,3.3179,3.3214,3.3285,3.336,3.3377,3.3392,3.3448,3.3468,3.3227,3.3227,3.3227,0,3.2217,3.2347,3.2368,3.2463,3.2514,3.2508,3.2609,3.2658,3.2758,3.2794,3.2765,3.2947,3.2997,3.3142,3.3179,3.3217,3.3246,3.3205,3.3373,3.3389,3.3403,3.3456,3.3477,3.3231,3.323,3.323,3.323,0,3.2406,3.2496,3.2567,3.2665,3.2724,3.2822,3.2857,3.2915,3.2921,3.2953,3.3075,3.3135,3.3228,3.3264,3.327,3.341,3.3392,3.3368,3.3314,3.3427,3.3477,3.3498,3.3236,3.3235,3.3234,3.3233,0,0,3.2564,3.2672,3.2698,3.2742,3.2828,3.2898,3.2996,3.3087,3.3137,3.3206,3.3289,3.3412,3.3391,3.3443,3.3456,3.3522,3.3641,3.349,3.3492,3.3516,3.3799,3.3817,3.384,3.3636,3.364,3.3643,3.3793,0,3.2706,3.2878,3.29,3.3053,3.3137,3.3133,3.3218,3.328,3.3312,3.3388,3.3424,3.3511,3.3476,3.3508,3.3573,3.3613,3.3699,3.3603,3.3713,3.3717,3.3695,3.3867,3.3886,3.4025,3.3813,3.3816,3.3819,0,3.2894,3.297,3.3131,3.3206,3.3242,3.3318,3.3404,3.3477,3.3547,3.3566,3.3626,3.363,3.3732,3.3674,3.3815,3.3749,3.3796,3.3823,3.3829,3.384,3.3775,3.3883,3.4069,3.409,3.385,3.3848,3.3845,0,3.2994,3.3136,3.3251,3.3289,3.3379,3.3432,3.3472,3.3539,3.3593,3.3668,3.3703,3.3789,3.3837,3.3904,3.3932,3.3887,3.4071,3.4016,3.409,3.4089,3.4128,3.4126,3.4325,3.4158,3.4158,3.4158,3.4157,0,3.3151,3.325,3.3297,3.3368,3.3479,3.3503,3.3613,3.3651,3.371,3.3789,3.379,3.3864,3.3896,3.3975,3.3998,3.4111,3.4132,3.4151,3.4156,3.4151,3.4149,3.4182,3.4173,3.4163,3.4162,3.4161,3.416,0,3.3281,3.3317,3.3442,3.3517,3.3538,3.3617,3.3681,3.375,3.3781,3.3881,3.3906,3.3956,3.4049,3.4083,3.4197,3.4212,3.4343,3.434,3.4319,3.4321,3.4393,3.4386,3.4621,3.4653,3.4465,3.4466,3.4468,0,3.3378,3.3455,3.3538,3.359,3.3632,3.3717,3.3772,3.3799,3.3856,3.3943,3.4001,3.4094,3.4169,3.4319,3.4365,3.4452,3.4451,3.4528,3.4464,3.4457,3.4453,3.4448,3.4456,3.454,3.4542,3.4543,3.4544,0,3.3548,3.3562,3.3641,3.3727,3.3792,3.3861,3.3928,3.3971,3.4008,3.4072,3.4168,3.4226,3.4342,3.4434,3.4524,3.4565,3.4562,3.4564,3.4586,3.4582,3.4567,3.4576,3.4352,3.4559,3.4557,3.4556,3.4555,3.4555,3.3665,3.3733,3.3802,3.389,3.3943,3.4006,3.4074,3.4115,3.4195,3.4291,3.4302,3.4405,3.4474,3.4594,3.4639,3.472,3.4699,3.4731,3.4739,3.4746,3.4752,3.4554,3.4736,3.4736,3.4736,3.4735,3.4735,0,3.3835,3.3879,3.396,3.4054,3.4123,3.4113,3.4187,3.4246,3.4336,3.4401,3.4475,3.4585,3.4675,3.4728,3.4819,3.4873,3.4874,3.4896,3.4892,3.4902,3.4765,3.4737,3.4894,3.4894,3.4894,3.4894,3.4894,3.4894,3.3931,3.4045,3.4068,3.4208,3.4252,3.4352,3.4395,3.4453,3.4505,3.4628,3.4702,3.4736,3.4797,3.4892,3.4974,3.4988,3.5021,3.5045,3.5057,3.4928,3.4911,3.4896,3.487,3.5052,3.5052,3.5187,3.5189,3.5189]},{"header":{"parameterUnit":"m.s-1","parameterCategory":1,"la1":30.2991,"la2":30.254,"lo1":-89.0895,"lo2":-89.0444,"dy":0.0017,"dx":0.0017,"nx":28,"ny":28,"refTime":"2025-09-19T09:00:00:Z","depth":0,"parameterNumber":3,"parameterNumberName":"V-component_of_WINDS"},"data":[0,0,0,0,0,0,0,0,0,0,0,0,0,0,0,0,0,0,0,0,0,0,0,0,0,0,0,0,0,0,0,0,0,0,0,0,0,0,0,0,0,0,0,0,0,0,0,0,0,0,0,0,0,0,0,0,0,0,-1.3094,-1.3095,0,-1.314,-1.314,-1.3141,-1.3143,-1.3143,-1.3142,-1.3142,-1.3188,-1.319,-1.3191,0,0,0,0,0,0,0,0,0,0,0,0,0,-1.3011,-1.3012,-1.3094,-1.3095,-1.3095,-1.314,-1.314,-1.3141,-1.3143,-1.3143,-1.3142,-1.3141,-1.3187,-1.3189,-1.3191,0,0,0,0,0,0,0,0,0,0,0,0,0,-1.305,-1.3013,-1.3094,-1.3102,-1.3103,-1.3139,-1.314,-1.3141,-1.3143,-1.3143,-1.3142,-1.3141,-1.3187,-1.3189,-1.3192,-1.3223,0,0,-1.32,-1.3201,0,0,0,0,0,0,0,0,-1.3048,-1.3054,-1.31,-1.3101,-1.3103,-1.3135,-1.3128,-1.3169,-1.3144,-1.3128,-1.3142,-1.3141,-1.3171,-1.3175,-1.3185,-1.3226,-1.3227,-1.32,-1.3201,-1.3202,-1.3203,0,0,0,0,0,0,0,-1.3045,-1.3052,-1.3112,-1.3101,-1.3102,-1.3103,-1.3108,-1.3135,-1.3153,-1.3129,-1.313,-1.3135,-1.3171,-1.3182,-1.3186,-1.3228,-1.32,-1.3202,-1.3204,-1.3205,-1.3298,-1.3299,0,0,0,0,0,0,-1.3041,-1.3049,-1.3111,-1.3114,-1.3073,-1.3106,-1.3111,-1.3125,-1.3153,-1.3156,-1.3136,-1.3135,-1.3178,-1.3183,-1.3188,-1.3227,-1.3202,-1.3205,-1.3206,-1.3297,-1.3298,-1.3299,0,0,0,0,0,0,-1.3039,-1.3047,-1.3109,-1.3082,-1.309,-1.3108,-1.3124,-1.3127,-1.3138,-1.3158,-1.3161,-1.3143,-1.3178,-1.3184,-1.3215,-1.3228,-1.3206,-1.3208,-1.3296,-1.3297,-1.3299,-1.3305,0,0,0,0,0,0,-1.3037,-1.3046,-1.3058,-1.3082,-1.3091,-1.3135,-1.3125,-1.3128,-1.3142,-1.3142,-1.3166,-1.3169,-1.3178,-1.3211,-1.3217,-1.3232,-1.321,-1.3295,-1.3297,-1.3298,-1.3304,-1.3307,-1.3309,0,0,0,0,0,-1.3034,-1.3058,-1.3058,-1.3066,-1.3106,-1.3136,-1.3141,-1.315,-1.3143,-1.3156,-1.3169,-1.3168,-1.3226,-1.3214,-1.3221,-1.3237,-1.3294,-1.3296,-1.3298,-1.3303,-1.3306,-1.3309,0,0,0,0,0,0,-1.3034,-1.3061,-1.3062,-1.3094,-1.3113,-1.3136,-1.3152,-1.3154,-1.3174,-1.3173,-1.3184,-1.3189,-1.322,-1.3231,-1.3217,-1.3269,-1.3259,-1.3263,-1.326,-1.3264,-1.3266,-1.3263,-1.3213,0,0,0,0,0,-1.3038,-1.306,-1.3082,-1.3108,-1.3118,-1.3133,-1.3146,-1.3152,-1.3172,-1.3179,-1.3195,-1.3214,-1.3236,-1.3251,-1.3273,-1.3306,-1.3312,-1.332,-1.3323,-1.3325,-1.3328,-1.3347,-1.3351,-1.3306,-1.3306,-1.3306,0,0,-1.3046,-1.3064,-1.3076,-1.3109,-1.3124,-1.3146,-1.314,-1.3163,-1.318,-1.3183,-1.3213,-1.3225,-1.3247,-1.3279,-1.3294,-1.329,-1.3342,-1.3328,-1.3329,-1.3331,-1.335,-1.3354,-1.3358,-1.3308,-1.3307,-1.3307,0,0,-1.3073,-1.3088,-1.3111,-1.3127,-1.315,-1.316,-1.3166,-1.319,-1.3198,-1.3228,-1.3231,-1.3252,-1.329,-1.3306,-1.3319,-1.3353,-1.3353,-1.336,-1.3373,-1.3391,-1.3395,-1.3398,-1.341,-1.3415,-1.3362,-1.3362,-1.3362,0,-1.308,-1.3113,-1.3123,-1.3147,-1.3162,-1.3166,-1.319,-1.3205,-1.3234,-1.3244,-1.3239,-1.3288,-1.3303,-1.3339,-1.3348,-1.3358,-1.3365,-1.3356,-1.3394,-1.3397,-1.34,-1.3412,-1.3416,-1.3363,-1.3363,-1.3363,-1.3363,0,-1.3121,-1.3144,-1.3161,-1.3189,-1.3205,-1.3229,-1.3244,-1.3259,-1.3264,-1.3275,-1.3306,-1.3325,-1.3351,-1.336,-1.3365,-1.3398,-1.3394,-1.3391,-1.3382,-1.3405,-1.3416,-1.3421,-1.3364,-1.3364,-1.3363,-1.3363,0,0,-1.3147,-1.3182,-1.3187,-1.3201,-1.3227,-1.3245,-1.327,-1.3296,-1.3309,-1.3329,-1.335,-1.3384,-1.3381,-1.3396,-1.3403,-1.342,-1.3446,-1.3415,-1.3416,-1.342,-1.3483,-1.3485,-1.349,-1.3447,-1.3448,-1.3448,-1.3481,0,-1.3176,-1.322,-1.323,-1.3268,-1.329,-1.3295,-1.3317,-1.3336,-1.3347,-1.3368,-1.3381,-1.3404,-1.3399,-1.3408,-1.3425,-1.3439,-1.3458,-1.3437,-1.3467,-1.3468,-1.346,-1.3496,-1.3497,-1.3527,-1.3486,-1.3487,-1.3487,0,-1.3215,-1.3236,-1.3276,-1.3301,-1.331,-1.3329,-1.3354,-1.3374,-1.3396,-1.3403,-1.3421,-1.3426,-1.3453,-1.3442,-1.3479,-1.3464,-1.3477,-1.3486,-1.3488,-1.349,-1.3478,-1.3499,-1.3537,-1.3542,-1.3494,-1.3494,-1.3493,0,-1.323,-1.3269,-1.3298,-1.3309,-1.3338,-1.3352,-1.3365,-1.3386,-1.3401,-1.3423,-1.3433,-1.3458,-1.3471,-1.3491,-1.3503,-1.3494,-1.3539,-1.353,-1.3546,-1.3546,-1.3555,-1.3554,-1.3595,-1.3564,-1.3564,-1.3564,-1.3564,0,-1.3261,-1.3285,-1.3305,-1.3323,-1.335,-1.3363,-1.339,-1.3403,-1.3422,-1.3443,-1.3449,-1.3469,-1.3484,-1.3506,-1.3516,-1.3545,-1.3551,-1.3558,-1.356,-1.3557,-1.3556,-1.3565,-1.3563,-1.3565,-1.3565,-1.3564,-1.3564,0,-1.3282,-1.3296,-1.3328,-1.3354,-1.3361,-1.338,-1.3402,-1.342,-1.3432,-1.3458,-1.3465,-1.3484,-1.351,-1.3525,-1.3558,-1.3565,-1.3597,-1.3599,-1.359,-1.3591,-1.3606,-1.3604,-1.3654,-1.3662,-1.3626,-1.3626,-1.3626,0,-1.33,-1.3319,-1.3346,-1.3361,-1.3374,-1.3397,-1.3413,-1.3426,-1.3442,-1.3469,-1.3484,-1.3511,-1.3532,-1.3574,-1.3591,-1.3616,-1.3618,-1.3634,-1.3622,-1.3619,-1.3618,-1.3617,-1.3619,-1.3636,-1.3636,-1.3637,-1.3637,0,-1.3331,-1.3338,-1.336,-1.3385,-1.3403,-1.3424,-1.3444,-1.3456,-1.3473,-1.3491,-1.3517,-1.3534,-1.3568,-1.3595,-1.3622,-1.3635,-1.3639,-1.3641,-1.3646,-1.3642,-1.3636,-1.364,-1.3595,-1.3639,-1.3639,-1.3639,-1.3639,-1.3638,-1.3351,-1.3368,-1.3391,-1.3415,-1.3432,-1.3451,-1.3469,-1.3484,-1.3507,-1.3535,-1.3542,-1.3571,-1.3593,-1.363,-1.3645,-1.3667,-1.3664,-1.3672,-1.3674,-1.3675,-1.3676,-1.3633,-1.3672,-1.3672,-1.3672,-1.3672,-1.3672,0,-1.3382,-1.3397,-1.342,-1.3448,-1.3468,-1.347,-1.3493,-1.351,-1.3534,-1.3555,-1.3577,-1.3608,-1.3634,-1.3654,-1.3681,-1.3695,-1.3698,-1.3702,-1.3701,-1.3704,-1.3677,-1.367,-1.37,-1.37,-1.37,-1.3699,-1.3699,-1.3699,-1.3401,-1.343,-1.344,-1.3478,-1.3493,-1.352,-1.3533,-1.3551,-1.3568,-1.3603,-1.3624,-1.3637,-1.3658,-1.3686,-1.3711,-1.3716,-1.3725,-1.3729,-1.3735,-1.3709,-1.3706,-1.3703,-1.3696,-1.3731,-1.3731,-1.376,-1.376,-1.376]}]]